Date String (YYYY-MM-DD hh:mm:ss) UTC,Instrument flags,Ambient pressure (hPa),Sample flow (lpm),Bypass flow (lpm),Sample temperature (°C),Ambient temperature (°C),ASC tube jacket temperature (°C),LED temperature (°C),Box temperature (°C),Sample RH (%),Span deviation,Mass concentration (μg/m³),Mass concentration (μg/m³),Mass concentration (μg/m³)
DateTimeUTC,F1_M11,P_M11,Q1_M11,Q2_M11,T1_M11,T2_M11,T3_M11,T4_M11,T5_M11,U1_M11,ZSPAN_M11,X2_M11,X0_M11,X1_M11
2023-05-10 14:00:00,,0830.0,4.98,0.00,29.3,27.8,00.0,37.6,31.0,25.1,-000.0,0005.10,0009.45,0004.19
2023-05-10 14:01:00,,0830.0,5.02,0.00,29.3,27.8,00.0,37.7,31.0,25.1,0000.2,0005.16,0009.57,0004.24
2023-05-10 14:02:00,,0830.0,4.99,0.00,29.3,27.8,00.0,37.7,31.0,25.5,0000.2,0005.22,0010.00,0004.28
2023-05-10 14:03:00,,0830.0,5.00,0.00,29.3,27.8,00.0,37.7,31.0,25.7,0000.4,0005.24,0010.46,0004.29
2023-05-10 14:04:00,,0830.0,5.01,0.00,29.3,27.8,00.0,37.7,31.0,25.7,0000.3,0005.30,0010.87,0004.33
2023-05-10 14:05:00,,0830.0,5.01,0.00,29.4,27.8,00.0,37.7,31.0,25.5,0000.1,0005.36,0011.01,0004.35
2023-05-10 14:06:00,,0830.0,4.99,0.00,29.4,27.8,00.0,37.7,31.0,25.5,-000.1,0005.38,0011.56,0004.37
2023-05-10 14:07:00,,0830.0,4.99,0.00,29.4,27.8,00.0,37.7,31.0,25.4,-000.6,0005.37,0011.57,0004.37
2023-05-10 14:08:00,,0830.0,5.00,0.00,29.4,27.8,00.0,37.7,31.0,25.6,-000.2,0005.35,0011.54,0004.36
2023-05-10 14:09:00,,0830.0,5.00,0.00,29.4,27.8,00.0,37.7,31.0,25.7,-000.1,0005.27,0011.89,0004.35
2023-05-10 14:10:00,,0830.0,5.01,0.00,29.4,27.8,00.0,37.7,31.0,25.6,-000.1,0005.23,0012.17,0004.32
2023-05-10 14:11:00,,0830.1,5.00,0.00,29.4,27.8,00.0,37.7,31.0,25.6,-000.1,0005.16,0012.03,0004.29
2023-05-10 14:12:00,,0830.0,4.98,0.00,29.4,27.8,00.0,37.7,31.0,25.6,-000.4,0005.13,0011.96,0004.26
2023-05-10 14:13:00,,0830.0,5.00,0.00,29.4,27.8,00.0,37.7,31.0,25.5,-000.2,0005.05,0011.85,0004.25
2023-05-10 14:14:00,,0830.1,5.01,0.00,29.4,27.8,00.0,37.7,31.0,25.7,-000.1,0005.06,0011.53,0004.26
2023-05-10 14:15:00,,0830.0,4.99,0.00,29.4,27.8,00.0,37.7,31.0,25.8,0000.3,0005.06,0011.19,0004.26
2023-05-10 14:16:00,,0830.0,5.02,0.00,29.4,27.8,00.0,37.7,31.0,25.8,0000.5,0005.01,0011.08,0004.25
2023-05-10 14:17:00,,0830.0,4.99,0.00,29.4,27.8,00.0,37.7,31.0,25.8,0000.5,0005.01,0010.46,0004.24
2023-05-10 14:18:00,,0830.0,4.99,0.00,29.4,27.8,00.0,37.7,31.0,25.8,0001.0,0005.02,0010.36,0004.25
2023-05-10 14:19:00,,0830.1,5.00,0.00,29.4,27.8,00.0,37.8,31.0,26.0,0001.4,0004.99,0010.40,0004.26
2023-05-10 14:20:00,,0830.1,5.00,0.00,29.4,27.8,00.0,37.8,31.0,26.1,0001.7,0005.03,0009.96,0004.30
2023-05-10 14:21:00,,0830.1,5.00,0.00,29.4,27.8,00.0,37.8,31.0,26.2,0001.5,0005.09,0009.69,0004.37
2023-05-10 14:22:00,,0830.1,5.00,0.00,29.4,27.8,00.0,37.8,31.0,26.3,0001.5,0005.17,0009.84,0004.43
2023-05-10 14:23:00,,0830.1,4.99,0.00,29.4,27.8,00.0,37.8,31.0,26.6,0001.8,0005.21,0009.81,0004.46
2023-05-10 14:24:00,,0830.1,5.01,0.00,29.4,27.8,00.0,37.8,31.0,26.5,0002.0,0005.30,0010.00,0004.50
2023-05-10 14:25:00,,0830.1,5.00,0.00,29.4,27.7,00.0,37.8,31.0,26.5,0001.6,0005.35,0010.36,0004.55
2023-05-10 14:26:00,,0830.1,5.01,0.00,29.4,27.7,00.0,37.8,31.0,26.5,0001.3,0005.37,0010.93,0004.59
2023-05-10 14:27:00,,0830.1,4.99,0.00,29.4,27.7,00.0,37.8,31.0,26.5,0001.3,0005.46,0011.09,0004.66
2023-05-10 14:28:00,,0830.2,4.99,0.00,29.4,27.7,00.0,37.8,31.0,26.5,0001.4,0005.57,0011.31,0004.75
2023-05-10 14:29:00,,0830.2,5.02,0.00,29.4,27.7,00.0,37.8,31.0,26.6,0001.3,0005.66,0011.43,0004.83
2023-05-10 14:30:00,,0830.2,5.00,0.00,29.4,27.7,00.0,37.8,31.0,26.7,0001.1,0005.84,0011.78,0004.91
2023-05-10 14:31:00,,0830.2,4.99,0.00,29.4,27.7,00.0,37.8,31.0,26.7,0001.0,0005.95,0012.79,0004.96
2023-05-10 14:32:00,,0830.2,5.01,0.00,29.4,27.7,00.0,37.8,31.0,26.7,0001.3,0006.07,0013.30,0005.01
2023-05-10 14:33:00,,0830.2,5.01,0.00,29.3,27.7,00.0,37.8,31.0,26.8,0001.2,0006.18,0014.40,0005.05
2023-05-10 14:34:00,,0830.2,5.01,0.00,29.3,27.7,00.0,37.8,31.0,27.0,0001.0,0006.30,0015.17,0005.12
2023-05-10 14:35:00,,0830.3,4.99,0.00,29.4,27.7,00.0,37.8,31.0,27.1,0000.6,0006.44,0015.24,0005.19
2023-05-10 14:36:00,,0830.3,5.00,0.00,29.4,27.7,00.0,37.8,30.9,27.2,0000.6,0006.59,0015.21,0005.27
2023-05-10 14:37:00,,0830.2,4.99,0.00,29.4,27.7,00.0,37.8,31.0,27.2,0000.2,0006.71,0014.81,0005.33
2023-05-10 14:38:00,,0830.3,4.99,0.00,29.4,27.7,00.0,37.8,31.0,27.1,-000.1,0006.81,0015.17,0005.37
2023-05-10 14:39:00,,0830.3,5.00,0.00,29.4,27.7,00.0,37.8,31.0,27.3,-000.6,0006.94,0016.12,0005.41
2023-05-10 14:40:00,,0830.3,5.01,0.00,29.4,27.7,00.0,37.8,31.0,27.3,-000.8,0007.03,0016.52,0005.45
2023-05-10 14:41:00,,0830.3,5.00,0.00,29.4,27.7,00.0,37.8,31.0,27.2,-001.3,0007.08,0016.78,0005.50
2023-05-10 14:42:00,,0830.3,5.00,0.00,29.4,27.7,00.0,37.8,31.0,27.2,-001.5,0007.20,0016.07,0005.58
2023-05-10 14:43:00,,0830.3,5.01,0.00,29.4,27.7,00.0,37.8,31.0,27.1,-001.6,0007.33,0017.00,0005.64
2023-05-10 14:44:00,,0830.2,5.00,0.00,29.4,27.7,00.0,37.8,31.0,27.0,-001.5,0007.45,0017.16,0005.70
2023-05-10 14:45:00,,0830.2,5.00,0.00,29.3,27.7,00.0,37.8,31.0,27.1,-001.7,0007.54,0017.17,0005.77
2023-05-10 14:46:00,,0830.2,4.99,0.00,29.4,27.7,00.0,37.8,31.0,27.1,-001.9,0007.57,0017.38,0005.81
2023-05-10 14:47:00,,0830.2,4.99,0.00,29.3,27.7,00.0,37.8,31.0,27.1,-002.1,0007.59,0017.79,0005.84
2023-05-10 14:48:00,,0830.2,5.01,0.00,29.3,27.7,00.0,37.8,31.0,27.1,-001.8,0007.67,0018.88,0005.89
2023-05-10 14:49:00,,0830.2,5.01,0.00,29.4,27.7,00.0,37.8,31.0,27.2,-001.5,0007.77,0019.69,0005.94
2023-05-10 14:50:00,,0830.2,5.01,0.00,29.4,27.7,00.0,37.8,31.0,27.2,-001.4,0007.71,0019.01,0005.95
2023-05-10 14:51:00,,0830.3,5.00,0.00,29.4,27.7,00.0,37.8,31.0,27.1,-001.4,0007.71,0018.83,0005.96
2023-05-10 14:52:00,,0830.2,4.99,0.00,29.4,27.7,00.0,37.8,31.0,27.1,-000.9,0007.65,0018.41,0005.95
2023-05-10 14:53:00,,0830.3,5.00,0.00,29.3,27.7,00.0,37.8,31.0,27.2,-000.5,0007.57,0018.68,0005.93
2023-05-10 14:54:00,,0830.2,5.00,0.00,29.3,27.6,00.0,37.7,31.0,27.2,-000.2,0007.46,0018.08,0005.90
2023-05-10 14:55:00,,0830.3,4.99,0.00,29.3,27.6,00.0,37.7,31.0,27.2,-000.1,0007.33,0016.86,0005.88
2023-05-10 14:56:00,,0830.2,5.01,0.00,29.3,27.6,00.0,37.7,31.0,27.2,-000.0,0007.23,0016.43,0005.85
2023-05-10 14:57:00,,0830.3,5.00,0.00,29.3,27.6,00.0,37.7,30.9,27.3,0000.4,0007.20,0015.94,0005.83
2023-05-10 14:58:00,,0830.3,5.01,0.00,29.3,27.6,00.0,37.7,30.9,27.3,0000.8,0007.16,0015.46,0005.83
2023-05-10 14:59:00,,0830.3,4.99,0.00,29.3,27.6,00.0,37.7,30.9,27.2,0000.9,0007.04,0014.44,0005.80
